EST,Max TemperatureF,Mean TemperatureF,Min TemperatureF,Max Dew PointF,MeanDew PointF,Min DewpointF,Max Humidity, Mean Humidity, Min Humidity, Max Sea Level PressureIn, Mean Sea Level PressureIn, Min Sea Level PressureIn, Max VisibilityMiles, Mean VisibilityMiles, Min VisibilityMiles, Max Wind SpeedMPH, Mean Wind SpeedMPH, Max Gust SpeedMPH,PrecipitationIn, CloudCover, Events, WindDirDegrees
2011-12-1,49,38,27,28,24,18,85,61,34,30.31,30.17,29.96,10,10,10,12,4,15,0.00,0,,331
2011-12-2,50,37,23,31,26,21,92,66,38,30.51,30.34,30.25,10,10,10,16,4,24,0.00,2,,253
2011-12-3,44,34,23,27,24,21,92,72,40,30.68,30.61,30.51,10,10,10,9,1,12,0.00,0,,330
2011-12-4,53,39,24,37,31,22,96,78,50,30.59,30.48,30.38,10,9,5,12,2,16,0.00,0,,182
2011-12-5,58,45,32,49,39,32,100,87,67,30.39,30.31,30.16,10,6,0,10,3,15,0.00,6,Fog,169
2011-12-6,61,54,47,57,54,46,100,92,83,30.17,29.99,29.91,10,6,1,12,4,20,0.25,8,Rain,176
2011-12-7,47,43,38,45,40,35,96,91,86,29.92,29.75,29.53,10,6,2,23,6,37,2.12,8,Rain,348
2011-12-8,45,38,30,32,28,24,92,73,45,30.30,29.90,29.51,10,8,1,30,8,39,0.29,4,Rain-Snow,298
2011-12-9,48,38,28,31,27,24,92,75,45,30.33,30.26,30.19,10,9,4,12,2,20,0.00,1,,181
2011-12-10,42,32,22,31,19,7,92,64,27,30.48,30.30,30.17,10,8,4,15,3,20,0.00,0,,320
2011-12-11,38,28,18,21,17,14,91,69,40,30.64,30.58,30.49,10,10,9,9,1,13,0.00,0,,220
2011-12-12,44,32,19,24,18,12,92,68,27,30.60,30.51,30.42,10,9,6,10,2,13,0.00,0,,178
2011-12-13,45,32,18,27,22,15,92,77,45,30.41,30.37,30.33,10,8,6,10,1,14,0.00,0,,315
2011-12-14,50,39,27,35,30,25,92,73,46,30.42,30.35,30.28,10,9,6,9,1,16,0.00,4,,150
2011-12-15,56,50,43,49,41,35,77,71,61,30.27,29.96,29.73,10,10,6,14,6,22,0.06,8,Rain,188
2011-12-16,54,43,32,47,29,21,83,57,38,30.12,30.00,29.70,10,10,8,28,9,41,0.00,3,,277
2011-12-17,40,32,24,29,21,12,92,67,48,30.17,30.11,30.06,10,10,8,14,4,20,0.00,5,,12
2011-12-18,29,22,15,12,8,3,74,58,34,30.32,30.25,30.18,10,10,4,17,4,21,0.00,0,,3
2011-12-19,47,31,14,31,21,10,80,62,42,30.27,30.08,29.93,10,10,9,14,5,22,T,4,,215
2011-12-20,45,40,34,36,25,14,73,56,30,30.19,30.11,29.93,10,10,10,12,4,14,T,4,Rain,352
2011-12-21,52,45,37,49,42,32,93,91,70,30.14,29.84,29.65,10,4,0,21,1,25,0.40,8,Fog-Rain,216
2011-12-22,55,49,42,46,40,36,89,69,54,30.08,29.98,29.73,10,10,5,15,5,21,0.05,6,Rain,253
2011-12-23,48,39,29,43,37,19,100,82,53,30.22,29.97,29.85,10,7,2,16,5,25,0.53,8,Rain,339
2011-12-24,35,27,19,20,15,11,84,62,39,30.48,30.38,30.22,10,10,9,12,3,15,0.00,1,,16
2011-12-25,42,30,17,30,22,12,84,67,49,30.42,30.16,29.87,10,10,10,13,2,18,0.00,6,,173
2011-12-26,46,35,24,31,25,20,82,63,37,30.28,30.11,29.86,10,10,10,18,5,26,0.00,2,,307
2011-12-27,58,41,23,54,36,21,100,83,57,30.18,29.70,29.26,10,7,2,20,4,29,0.68,5,Rain,159
2011-12-28,51,39,27,43,26,9,77,59,46,29.82,29.52,29.33,10,10,10,28,14,36,0.00,6,,260
2011-12-29,32,26,20,21,11,6,75,53,39,30.03,29.97,29.83,10,10,10,17,6,20,0.00,2,,233
2011-12-30,49,39,29,35,27,21,82,70,46,30.04,30.00,29.94,10,10,10,9,1,12,0.00,4,,152
2011-12-31,53,43,32,44,36,30,100,88,68,30.00,29.91,29.80,10,6,0,8,1,9,0.01,5,Fog-Rain,233